Flag for U.S.A. Weather past 2 weeks in Columbia, South Carolina, U.S.A.

Now
39 °F

Clear.


Feels Like: 39 °F
Forecast: 37 / 57 °F
Wind: No wind

Location: Columbia Owens Downtown Airport

Current Time: Dec 19, 2014 at 6:10:15 AM

Latest Report: Dec 19, 2014 at 4:53 AM


Visibility: 10 mi

Pressure: 30.09 "Hg

Humidity: 89%

Dew point: 36 °F

Location of ColumbiaLocation

Historic Weather in Columbia — Graph

°F

Columbia temperature yesterday

Maximum temperature yesterday: 59 °F (at 2:53 PM)
Minimum temperature yesterday: 36 °F (at 4:53 AM)
Average temperature yesterday: 47 °F

Past Weeks' High & Low Weather Summary

 TemperatureHumidityPressure
High68 °F (Dec 15, 3:53 PM)93% (Dec 4, 4:53 AM)30.45 "Hg (Dec 4, 4:53 AM)
Low27 °F (Dec 12, 6:53 AM)16% (Dec 12, 2:53 PM)29.91 "Hg (Dec 16, 3:53 PM)
Average48 °F67%30.16 "Hg
* Reported Dec 4 4:53 AM — Dec 19 4:53 AM, Columbia, Weather by CustomWeather, © 2014

Note: Actual official high and low records may vary slightly from our data, if they occured in-between our weather recording intervals... More about our weather records

Advertising

Columbia weather history for previous 24 hours

 ConditionsComfort  
Time TempWeatherWind HumidityBarometerVisibility
4:53 AM
Dec 19
39 °FClear.No wind89%30.09 "Hg10 mi
3:53 AM39 °FClear.No wind89%30.09 "Hg10 mi
2:53 AM40 °FClear.No wind86%30.09 "Hg10 mi
1:53 AM42 °FClear.No wind82%30.10 "Hg10 mi
12:53 AM42 °FPassing clouds.No wind82%30.10 "Hg7 mi
11:53 PM
Dec 18
42 °FClear.No wind85%30.12 "Hg10 mi
10:53 PM44 °FClear.No wind79%30.12 "Hg10 mi
9:53 PM47 °FClear.No wind71%30.11 "Hg10 mi
8:53 PM48 °FOvercast.No wind68%30.11 "Hg10 mi
7:53 PM46 °FClear.No wind71%30.11 "Hg10 mi
6:53 PM48 °FClear.No wind66%30.09 "Hg10 mi
5:53 PM51 °FClear.No wind59%30.09 "Hg10 mi
4:53 PM58 °FSunny.No wind38%30.09 "Hg10 mi
3:53 PM59 °FSunny.5 mph36%30.09 "Hg10 mi
2:53 PM59 °FPartly sunny.3 mph33%30.09 "Hg10 mi
1:53 PM58 °FSunny.No wind33%30.10 "Hg10 mi
12:53 PM58 °FSunny.3 mph35%30.13 "Hg10 mi
11:53 AM56 °FSunny.No wind33%30.16 "Hg10 mi
10:53 AM54 °FSunny.6 mph37%30.20 "Hg10 mi
9:53 AM52 °FSunny.8 mph49%30.20 "Hg10 mi
8:53 AM46 °FSunny.3 mph71%30.18 "Hg10 mi
7:53 AM38 °FSunny.No wind90%30.16 "Hg10 mi
6:53 AM37 °FClear.No wind89%30.15 "Hg10 mi
Weather by CustomWeather, © 2014

See weather overviewHow to use our weather pages